H1 CPF 2 NER 2026 4 15 9 105 01 glonass138 H2 1805301 9138 43508 2026 4 15 0 0 0 2026 4 18 23 45 0 900 1 1 0 0 0 1 H9 10 0 61145 0.00000 0 10716988.801 21165741.371 -9336101.130 10 0 61145 900.00000 0 10012144.644 20020630.887 -12201232.901 10 0 61145 1800.00000 0 8992262.385 18684946.083 -14828956.011 10 0 61145 2700.00000 0 7651838.497 17220712.068 -17168122.050 10 0 61145 3600.00000 0 5998517.655 15691781.039 -19173203.573 10 0 61145 4500.00000 0 4053036.948 14161134.618 -20805184.811 10 0 61145 5400.00000 0 1848619.331 12688242.671 -22032323.772 10 0 61145 6300.00000 0 -570159.308 11326590.087 -22830770.794 10 0 61145 7200.00000 0 -3148982.878 10121475.623 -23185031.635 10 0 61145 8100.00000 0 -5825820.817 9108175.164 -23088266.372 10 0 61145 9000.00000 0 -8533282.767 8310546.089 -22542418.617 10 0 61145 9900.00000 0 -11201204.291 7740130.677 -21558172.925 10 0 61145 10800.00000 0 -13759356.193 7395795.259 -20154741.556 10 0 61145 11700.00000 0 -16140164.830 7263919.148 -18359485.066 10 0 61145 12600.00000 0 -18281330.382 7319124.215 -16207374.365 10 0 61145 13500.00000 0 -20128234.386 7525513.114 -13740304.957 10 0 61145 14400.00000 0 -21636036.680 7838362.793 -11006276.912 10 0 61145 15300.00000 0 -22771374.941 8206200.748 -8058456.800 10 0 61145 16200.00000 0 -23513596.687 8573175.389 -4954140.125 10 0 61145 17100.00000 0 -23855473.319 8881619.604 -1753634.727 10 0 61145 18000.00000 0 -23803367.463 9074698.525 1480912.723 10 0 61145 18900.00000 0 -23376847.888 9099029.150 4686724.049 10 0 61145 19800.00000 0 -22607769.420 8907160.797 7801607.017 10 0 61145 20700.00000 0 -21538857.573 8459811.450 10765159.099 10 0 61145 21600.00000 0 -20221858.260 7727765.482 13519934.301 10 0 61145 22500.00000 0 -18715330.859 6693352.631 16012550.709 10 0 61145 23400.00000 0 -17082177.507 5351445.749 18194717.772 10 0 61145 24300.00000 0 -15387012.120 3709935.011 20024164.152 10 0 61145 25200.00000 0 -13693478.918 1789658.045 21465449.018 10 0 61145 26100.00000 0 -12061631.946 -376211.998 22490641.962 10 0 61145 27000.00000 0 -10545484.278 -2743296.055 23079859.247 10 0 61145 27900.00000 0 -9190828.227 -5257610.815 23221646.677 10 0 61145 28800.00000 0 -8033416.670 -7857577.340 22913202.116 10 0 61145 29700.00000 0 -7097580.469 -10476354.837 22160433.467 10 0 61145 30600.00000 0 -6395339.062 -13044404.279 20977850.719 10 0 61145 31500.00000 0 -5926040.933 -15492176.886 19388293.577 10 0 61145 32400.00000 0 -5676548.751 -17752817.022 17422499.099 10 0 61145 33300.00000 0 -5621961.438 -19764768.100 15118516.584 10 0 61145 34200.00000 0 -5726843.002 -21474173.561 12520979.983 10 0 61145 35100.00000 0 -5946906.714 -22836973.071 9680250.812 10 0 61145 36000.00000 0 -6231083.898 -23820606.309 6651447.274 10 0 61145 36900.00000 0 -6523890.127 -24405252.686 3493377.822 10 0 61145 37800.00000 0 -6767988.716 -24584554.530 267399.564 10 0 61145 38700.00000 0 -6906842.653 -24365792.820 -2963776.265 10 0 61145 39600.00000 0 -6887341.973 -23769507.541 -6137308.114 10 0 61145 40500.00000 0 -6662294.278 -22828578.269 -9191452.751 10 0 61145 41400.00000 0 -6192671.643 -21586803.496 -12066773.994 10 0 61145 42300.00000 0 -5449517.350 -20097038.565 -14707307.082 10 0 61145 43200.00000 0 -4415430.227 -18418970.877 -17061655.153 10 0 61145 44100.00000 0 -3085562.345 -16616626.380 -19083995.802 10 0 61145 45000.00000 0 -1468086.467 -14755712.742 -20734977.536 10 0 61145 45900.00000 0 415887.793 -12900911.291 -21982488.424 10 0 61145 46800.00000 0 2532946.789 -11113231.823 -22802281.896 10 0 61145 47700.00000 0 4838529.083 -9447541.406 -23178447.628 10 0 61145 48600.00000 0 7278557.477 -7950370.706 -23103718.618 10 0 61145 49500.00000 0 9791479.202 -6658089.363 -22579608.825 10 0 61145 50400.00000 0 12310629.473 -5595526.169 -21616379.027 10 0 61145 51300.00000 0 14766820.063 -4775090.927 -20232831.942 10 0 61145 52200.00000 0 17091045.193 -4196433.496 -18455940.866 10 0 61145 53100.00000 0 19217192.012 -3846653.014 -16320319.322 10 0 61145 54000.00000 0 21084642.858 -3701046.916 -13867542.285 10 0 61145 54900.00000 0 22640660.980 -3724366.759 -11145332.401 10 0 61145 55800.00000 0 23842460.477 -3872526.475 -8206627.288 10 0 61145 56700.00000 0 24658874.513 -4094689.686 -5108546.385 10 0 61145 57600.00000 0 25071552.757 -4335646.809 -1911277.714 10 0 61145 58500.00000 0 25075638.745 -4538380.615 1323093.393 10 0 61145 59400.00000 0 24679899.819 -4646711.076 4531790.532 10 0 61145 60300.00000 0 23906305.170 -4607907.226 7652563.767 10 0 61145 61200.00000 0 22789070.678 -4375155.366 10624894.657 10 0 61145 62100.00000 0 21373211.451 -3909779.174 13391165.478 10 0 61145 63000.00000 0 19712663.324 -3183117.972 15897770.233 10 0 61145 63900.00000 0 17868052.388 -2177983.844 18096146.392 10 0 61145 64800.00000 0 15904205.875 -889636.046 19943708.073 10 0 61145 65700.00000 0 13887508.150 673768.664 21404663.456 10 0 61145 66600.00000 0 11883211.642 2491269.395 22450701.451 10 0 61145 67500.00000 0 9952814.018 4529735.280 23061535.226 10 0 61145 68400.00000 0 8151609.930 6745015.258 23225292.742 10 0 61145 69300.00000 0 6526518.272 9083557.029 22938747.203 10 0 61145 70200.00000 0 5114274.420 11484429.435 22207383.092 10 0 61145 71100.00000 0 3940061.816 13881665.796 21045296.258 10 0 61145 72000.00000 0 3016639.274 16206832.297 19474929.470 10 0 61145 72900.00000 0 2343999.844 18391715.953 17526647.657 10 0 61145 73800.00000 0 1909575.213 20371021.354 15238160.002 10 0 61145 74700.00000 0 1688976.916 22084964.461 12653798.979 10 0 61145 75600.00000 0 1647243.228 23481655.551 9823669.179 10 0 61145 76500.00000 0 1740539.304 24519171.663 6802681.527 10 0 61145 77400.00000 0 1918238.877 25167231.340 3649490.997 10 0 61145 78300.00000 0 2125299.454 25408400.861 425358.141 10 0 61145 79200.00000 0 2304830.193 25238780.518 -2807043.417 10 0 61145 80100.00000 0 2400743.151 24668141.320 -5984849.925 10 0 61145 81000.00000 0 2360374.700 23719505.677 -9046236.448 10 0 61145 81900.00000 0 2136964.945 22428189.183 -11931627.105 10 0 61145 82800.00000 0 1691888.798 20840343.518 -14584862.097 10 0 61145 83700.00000 0 996542.851 19011061.713 -16954297.965 10 0 61145 84600.00000 0 33806.784 17002125.564 -18993818.960 10 0 61145 85500.00000 0 -1200983.846 14879490.135 -20663739.249 10 0 61146 0.00000 0 -2699595.668 12710611.445 -21931578.028 10 0 61146 900.00000 0 -4441007.044 10561728.516 -22772692.972 10 0 61146 1800.00000 0 -6392063.496 8495216.744 -23170758.196 10 0 61146 2700.00000 0 -8508654.999 6567119.416 -23118079.964 10 0 61146 3600.00000 0 -10737364.538 4824963.221 -22615742.539 10 0 61146 4500.00000 0 -13017520.191 3305947.336 -21673582.459 10 0 61146 5400.00000 0 -15283565.126 2035581.047 -20309991.972 10 0 61146 6300.00000 0 -17467646.720 1026825.707 -18551555.728 10 0 61146 7200.00000 0 -19502316.779 279775.475 -16432528.065 10 0 61146 8100.00000 0 -21323230.113 -218111.415 -13994161.308 10 0 61146 9000.00000 0 -22871728.878 -491242.291 -11283898.302 10 0 61146 9900.00000 0 -24097204.727 -574614.687 -8354445.210 10 0 61146 10800.00000 0 -24959140.277 -512091.344 -5262742.830 10 0 61146 11700.00000 0 -25428744.799 -354299.755 -2068856.783 10 0 61146 12600.00000 0 -25490116.166 -156246.144 1165191.492 10 0 61146 13500.00000 0 -25140881.000 25254.315 4376629.879 10 0 61146 14400.00000 0 -24392286.947 134221.748 7503153.209 10 0 61146 15300.00000 0 -23268743.928 118118.066 10484129.540 10 0 61146 16200.00000 0 -21806834.290 -69694.669 13261771.743 10 0 61146 17100.00000 0 -20053833.832 -467747.886 15782251.932 10 0 61146 18000.00000 0 -18065805.913 -1104605.268 17996737.606 10 0 61146 18900.00000 0 -15905348.322 -1997425.072 19862330.109 10 0 61146 19800.00000 0 -13639086.708 -3151006.733 21342888.090 10 0 61146 20700.00000 0 -11335018.544 -4557362.202 22409720.901 10 0 61146 21600.00000 0 -9059817.396 -6195830.729 23042139.373 10 0 61146 22500.00000 0 -6876208.671 -8033733.363 23227854.023 10 0 61146 23400.00000 0 -4840524.861 -10027541.100 22963213.449 10 0 61146 24300.00000 0 -3000540.789 -12124509.510 22253278.438 10 0 61146 25200.00000 0 -1393677.790 -14264713.302 21111730.151 10 0 61146 26100.00000 0 -45650.658 -16383397.651 19560613.581 10 0 61146 27000.00000 0 1030387.026 -18413549.736 17629920.443 10 0 61146 27900.00000 0 1834164.085 -20288584.495 15357018.474 10 0 61146 28800.00000 0 2378066.366 -21945033.302 12785937.090 10 0 61146 29700.00000 0 2686374.458 -23325123.691 9966522.166 10 0 61146 30600.00000 0 2793996.687 -24379142.194 6953475.361 10 0 61146 31500.00000 0 2744750.829 -25067480.912 3805296.024 10 0 61146 32400.00000 0 2589267.222 -25362281.272 583145.875 10 0 61146 33300.00000 0 2382602.242 -25248604.989 -2650341.463 10 0 61146 34200.00000 0 2181663.649 -24725082.020 -5832282.517 10 0 61146 35100.00000 0 2042557.598 -23804007.220 -8900773.223 10 0 61146 36000.00000 0 2017970.693 -22510880.806 -11796100.640 10 0 61146 36900.00000 0 2154699.154 -20883411.279 -14461912.611 10 0 61146 37800.00000 0 2491430.997 -18970022.331 -16846321.746 10 0 61146 38700.00000 0 3056876.404 -16827926.285 -18902921.524 10 0 61146 39600.00000 0 3868326.615 -14520844.975 -20591694.153 10 0 61146 40500.00000 0 4930703.401 -12116473.795 -21879792.233 10 0 61146 41400.00000 0 6236140.300 -9683795.254 -22742178.948 10 0 61146 42300.00000 0 7764114.184 -7290354.627 -23162114.409 10 0 61146 43200.00000 0 9482122.429 -4999611.492 -23131478.955 10 0 61146 44100.00000 0 11346877.879 -2868477.526 -22650927.493 10 0 61146 45000.00000 0 13305971.966 -945142.855 -21729872.187 10 0 61146 45900.00000 0 15299936.604 732719.124 -20386294.213 10 0 61146 46800.00000 0 17264618.751 2139294.629 -18646388.521 10 0 61146 47700.00000 0 19133768.285 3261465.310 -16544048.759 10 0 61146 48600.00000 0 20841730.922 4099103.681 -14120202.633 10 0 61146 49500.00000 0 22326133.431 4664817.573 -11422010.795 10 0 61146 50400.00000 0 23530448.671 4983156.151 -8501945.127 10 0 61146 51300.00000 0 24406333.068 5089312.733 -5416764.625 10 0 61146 52200.00000 0 24915638.700 5027380.696 -2226409.082 10 0 61146 53100.00000 0 25032015.860 4848237.545 1007167.517 10 0 61146 54000.00000 0 24742039.271 4607147.660 4221200.915 10 0 61146 54900.00000 0 24045811.141 4361185.943 7353334.153 10 0 61146 55800.00000 0 22957016.266 4166591.859 10342824.998 10 0 61146 56700.00000 0 21502427.327 4076165.993 13131719.797 10 0 61146 57600.00000 0 19720881.431 4136819.205 15665971.292 10 0 61146 58500.00000 0 17661770.913 4387377.767 17896479.123 10 0 61146 59400.00000 0 15383111.406 4856736.907 19780033.563 10 0 61146 60300.00000 0 12949267.431 5562440.456 21280145.052 10 0 61146 61200.00000 0 10428429.740 6509746.456 22367744.299 10 0 61146 62100.00000 0 7889948.495 7691218.308 23021740.318 10 0 61146 63000.00000 0 5401632.104 9086859.314 23229426.296 10 0 61146 63900.00000 0 3027122.748 10664785.943 22986725.912 10 0 61146 64800.00000 0 823456.337 12382412.970 22298275.515 10 0 61146 65700.00000 0 -1161092.951 14188102.424 21177340.383 10 0 61146 66600.00000 0 -2888795.060 16023209.014 19645566.134 10 0 61146 67500.00000 0 -4333800.114 17824438.087 17732569.287 10 0 61146 68400.00000 0 -5482973.196 19526418.911 15475373.836 10 0 61146 69300.00000 0 -6336193.513 21064386.654 12917703.611 10 0 61146 70200.00000 0 -6906105.749 22376861.408 10109143.075 10 0 61146 71100.00000 0 -7217334.313 23408212.168 7104181.826 10 0 61146 72000.00000 0 -7305193.656 24110997.896 3961160.752 10 0 61146 72900.00000 0 -7213949.233 24447986.686 741139.897 10 0 61146 73800.00000 0 -6994702.826 24393767.169 -2493289.902 10 0 61146 74700.00000 0 -6702992.100 23935883.201 -5679228.154 10 0 61146 75600.00000 0 -6396206.626 23075442.848 -8754694.216 10 0 61146 76500.00000 0 -6130930.669 21827174.900 -11659840.448 10 0 61146 77400.00000 0 -5960326.286 20218929.507 -14338124.461 10 0 61146 78300.00000 0 -5931668.671 18290643.185 -16737416.801 10 0 61146 79200.00000 0 -6084139.232 16092811.107 -18811021.771 10 0 61146 80100.00000 0 -6446970.868 13684530.510 -20518590.945 10 0 61146 81000.00000 0 -7038024.855 11131197.107 -21826911.312 10 0 61146 81900.00000 0 -7862860.339 8501950.883 -22710552.597 10 0 61146 82800.00000 0 -8914336.431 5866978.106 -23152361.289 10 0 61146 83700.00000 0 -10172764.297 3294782.148 -23143792.008 10 0 61146 84600.00000 0 -11606603.316 849536.764 -22685070.132 10 0 61146 85500.00000 0 -13173672.404 -1411368.196 -21785182.857 10 0 61147 0.00000 0 -14822825.712 -3439486.844 -20461699.385 10 0 61147 900.00000 0 -16496023.388 -5197095.006 -18740423.236 10 0 61147 1800.00000 0 -18130708.318 -6658510.071 -16654885.555 10 0 61147 2700.00000 0 -19662392.057 -7810902.908 -14245687.166 10 0 61147 3600.00000 0 -21027339.175 -8654566.856 -11559703.982 10 0 61147 4500.00000 0 -22165238.129 -9202635.442 -8649170.894 10 0 61147 5400.00000 0 -23021746.332 -9480262.390 -5570662.277 10 0 61147 6300.00000 0 -23550802.529 -9523300.219 -2383989.252 10 0 61147 7200.00000 0 -23716609.393 -9376534.739 848964.482 10 0 61147 8100.00000 0 -23495203.201 -9091551.336 4065445.306 10 0 61147 9000.00000 0 -22875544.901 -8724324.260 7203047.191 10 0 61147 9900.00000 0 -21860086.962 -8332631.523 10200920.215 10 0 61147 10800.00000 0 -20464792.527 -7973405.092 13000946.675 10 0 61147 11700.00000 0 -18718606.179 -7700128.444 15548862.200 10 0 61147 12600.00000 0 -16662398.501 -7560391.246 17795300.579 10 0 61147 13500.00000 0 -14347428.402 -7593704.061 19696742.704 10 0 61147 14400.00000 0 -11833386.871 -7829664.851 21216352.098 10 0 61147 15300.00000 0 -9186103.074 -8286554.220 22324681.721 10 0 61147 16200.00000 0 -6475007.240 -8970418.424 23000239.240 10 0 61147 17100.00000 0 -3770454.659 -9874678.862 23229900.566 10 0 61147 18000.00000 0 -1141020.612 -10980285.018 23009164.135 10 0 61147 18900.00000 0 1349122.829 -12256405.298 22342241.195 10 0 61147 19800.00000 0 3642640.607 -13661628.035 21241980.184 10 0 61147 20700.00000 0 5691179.198 -15145623.710 19729626.129 10 0 61147 21600.00000 0 7457133.771 -16651200.198 17834418.904 10 0 61147 22500.00000 0 8914965.241 -18116666.326 15593037.075 10 0 61147 23400.00000 0 10052012.893 -19478405.758 13048896.983 10 0 61147 24300.00000 0 10868769.040 -20673554.029 10251319.551 10 0 61147 25200.00000 0 11378604.487 -21642666.716 7254579.998 10 0 61147 26100.00000 0 11606956.497 -22332266.454 4116858.258 10 0 61147 27000.00000 0 11590013.635 -22697161.161 899110.107 10 0 61147 27900.00000 0 11372953.192 -22702434.946 -2336119.059 10 0 61147 28800.00000 0 11007805.988 -22325026.631 -5525914.374 10 0 61147 29700.00000 0 10551039.398 -21554828.047 -8608221.224 10 0 61147 30600.00000 0 10060961.583 -20395254.444 -11523059.796 10 0 61147 31500.00000 0 9595057.689 -18863261.703 -14213699.895 10 0 61147 32400.00000 0 9207371.748 -16988808.508 -16627772.287 10 0 61147 33300.00000 0 8946046.071 -14813785.171 -18718294.203 10 0 61147 34200.00000 0 8851123.195 -12390453.461 -20444588.456 10 0 61147 35100.00000 0 8952704.109 -9779462.377 -21773077.991 10 0 61147 36000.00000 0 9269541.307 -7047522.658 -22677940.290 10 0 61147 36900.00000 0 9808126.539 -4264837.073 -23141609.038 10 0 61147 37800.00000 0 10562312.132 -1502393.602 -23155113.533 10 0 61147 38700.00000 0 11513482.087 1170765.860 -22718249.588 10 0 61147 39600.00000 0 12631265.850 3690187.776 -21839578.985 10 0 61147 40500.00000 0 13874764.761 5998450.718 -20536257.826 10 0 61147 41400.00000 0 15194239.562 8047309.588 -18833697.430 10 0 61147 42300.00000 0 16533187.890 9799451.929 -16765064.615 10 0 61147 43200.00000 0 17830724.234 11229794.382 -14370631.307 10 0 61147 44100.00000 0 19024162.140 12326266.625 -11696986.297 10 0 61147 45000.00000 0 20051689.819 13090051.724 -8796124.752 10 0 61147 45900.00000 0 20855026.468 13535274.591 -5724433.394 10 0 61147 46800.00000 0 21381947.366 13688153.518 -2541591.417 10 0 61147 47700.00000 0 21588571.428 13585652.154 690591.147 10 0 61147 48600.00000 0 21441314.926 13273690.327 3909374.706 10 0 61147 49500.00000 0 20918429.229 12804990.420 7052307.423 10 0 61147 50400.00000 0 20011057.996 12236651.178 10058434.754 10 0 61147 51300.00000 0 18723769.445 11627551.969 12869477.704 10 0 61147 52200.00000 0 17074541.374 11035697.352 15430957.225 10 0 61147 53100.00000 0 15094199.410 10515613.921 17693243.317 10 0 61147 54000.00000 0 12825331.680 10115908.907 19612509.173 10 0 61147 54900.00000 0 10320724.668 9877092.939 21151572.726 10 0 61147 55800.00000 0 7641384.694 9829758.090 22280610.119 10 0 61147 56700.00000 0 4854226.335 9993187.439 22977728.214 10 0 61147 57600.00000 0 2029522.616 10374454.310 23229385.777 10 0 61147 58500.00000 0 -761778.503 10968049.107 23030655.682 10 0 61147 59400.00000 0 -3450761.456 11756049.746 22385323.293 10 0 61147 60300.00000 0 -5973163.323 12708829.293 21305818.939 10 0 61147 61200.00000 0 -8271799.558 13786272.111 19812985.312 10 0 61147 62100.00000 0 -10298695.565 14939448.667 17935683.465 10 0 61147 63000.00000 0 -12016836.408 16112679.948 15710243.995 10 0 61147 63900.00000 0 -13401462.380 17245905.901 13179772.942 10 0 61147 64800.00000 0 -14440856.794 18277259.236 10393324.711 10 0 61147 65700.00000 0 -15136593.317 19145736.858 7404957.089 10 0 61147 66600.00000 0 -15503232.569 19793856.519 4272686.027 10 0 61147 67500.00000 0 -15567480.863 20170186.422 1057360.077 10 0 61147 68400.00000 0 -15366846.653 20231640.292 -2178523.642 10 0 61147 69300.00000 0 -14947851.614 19945440.009 -5372038.585 10 0 61147 70200.00000 0 -14363872.309 19290661.591 -8461058.673 10 0 61147 71100.00000 0 -13672704.279 18259297.863 -11385474.218 10 0 61147 72000.00000 0 -12933952.306 16856791.485 -14088369.267 10 0 61147 72900.00000 0 -12206358.087 15102014.556 -16517136.571 10 0 61147 73800.00000 0 -11545179.189 13026694.398 -18624507.754 10 0 61147 74700.00000 0 -10999730.947 10674308.691 -20369478.027 10 0 61147 75600.00000 0 -10611195.836 8098495.554 -21718107.130 10 0 61147 76500.00000 0 -10410793.383 5361044.574 -22644180.854 10 0 61147 77400.00000 0 -10418388.179 2529552.406 -23129720.325 10 0 61147 78300.00000 0 -10641594.827 -325159.470 -23165329.438 10 0 61147 79200.00000 0 -11075417.534 -3131757.477 -22750374.042 10 0 61147 80100.00000 0 -11702439.359 -5821126.420 -21892989.730 10 0 61147 81000.00000 0 -12493552.870 -8329004.485 -20609918.495 10 0 61147 81900.00000 0 -13409201.127 -10598413.667 -18926177.688 10 0 61147 82800.00000 0 -14401076.364 -12581785.192 -16874568.005 10 0 61147 83700.00000 0 -15414204.465 -14242692.381 -14495030.277 10 0 61147 84600.00000 0 -16389327.077 -15557119.941 -11833863.735 10 0 61147 85500.00000 0 -17265480.637 -16514218.064 -8942821.201 10 0 61148 0.00000 0 -17982663.283 -17116511.390 -5878099.319 10 0 61148 900.00000 0 -18484477.293 -17379556.026 -2699242.049 10 0 61148 1800.00000 0 -18720634.550 -17331060.003 532016.725 10 0 61148 2700.00000 0 -18649220.566 -17009506.838 3752954.155 10 0 61148 3600.00000 0 -18238620.561 -16462340.679 6901075.279 10 0 61148 4500.00000 0 -17469026.865 -15743791.050 9915323.521 10 0 61148 5400.00000 0 -16333464.083 -14912429.593 12737261.083 10 0 61148 6300.00000 0 -14838288.830 -14028562.282 15312196.548 10 0 61148 7200.00000 0 -13003142.836 -13151567.066 17590238.196 10 0 61148 8100.00000 0 -10860360.967 -12337288.849 19527253.304 10 0 61148 9000.00000 0 -8453858.280 -11635600.935 21085715.615 10 0 61148 9900.00000 0 -5837541.691 -11088234.864 22235425.472 10 0 61148 10800.00000 0 -3073311.299 -10726969.131 22954089.523 10 0 61148 11700.00000 0 -228733.159 -10572252.258 23227749.552 10 0 61148 12600.00000 0 2625521.285 -10632317.589 23051052.644 10 0 61148 13500.00000 0 5418364.377 -10902826.863 22427357.679 10 0 61148 14400.00000 0 8081000.008 -11367057.672 21368675.956 10 0 61148 15300.00000 0 10549538.979 -11996627.500 19895446.608 10 0 61148 16200.00000 0 12767414.592 -12752724.699 18036150.362 10 0 61148 17100.00000 0 14687499.046 -13587795.635 15826768.078 10 0 61148 18000.00000 0 16273833.167 -14447618.028 13310093.445 10 0 61148 18900.00000 0 17502897.770 -15273674.071 10534912.025 10 0 61148 19800.00000 0 18364373.728 -16005723.960 7555061.592 10 0 61148 20700.00000 0 18861358.914 -16584471.554 4428391.293 10 0 61148 21600.00000 0 19010032.923 -16954209.508 1215639.474 10 0 61148 22500.00000 0 18838783.642 -17065331.564 -2020748.088 10 0 61148 23400.00000 0 18386832.561 -16876604.907 -5217836.204 10 0 61148 24300.00000 0 17702417.030 -16357105.277 -8313430.259 10 0 61148 25200.00000 0 16840606.622 -15487731.599 -11247293.435 10 0 61148 26100.00000 0 15860846.428 -14262234.635 -13962326.515 10 0 61148 27000.00000 0 14824331.782 -12687714.701 -16405686.466 10 0 61148 27900.00000 0 13791326.073 -10784566.062 -18529821.242 10 0 61148 28800.00000 0 12818535.665 -8585869.095 -20293400.065 10 0 61148 29700.00000 0 11956653.335 -6136254.690 -21662120.765 10 0 61148 30600.00000 0 11248174.296 -3490287.677 -22609378.360 10 0 61148 31500.00000 0 10725577.110 -710436.286 -23116781.956 10 0 61148 32400.00000 0 10409946.101 2135287.995 -23174510.204 10 0 61148 33300.00000 0 10310093.041 4975922.130 -22781498.742 10 0 61148 34200.00000 0 10422214.670 7740267.119 -21945456.351 10 0 61148 35100.00000 0 10730099.866 10359614.771 -20682709.914 10 0 61148 36000.00000 0 11205877.100 12770372.619 -19017881.457 10 0 61148 36900.00000 0 11811269.972 14916478.262 -16983403.850 10 0 61148 37800.00000 0 12499307.254 16751503.325 -14618884.766 10 0 61148 38700.00000 0 13216414.691 18240360.276 -11970331.473 10 0 61148 39600.00000 0 13904799.738 19360541.989 -9089251.726 10 0 61148 40500.00000 0 14505028.109 20102843.575 -6031648.508 10 0 61148 41400.00000 0 14958682.941 20471537.733 -2856928.410 10 0 61148 42300.00000 0 15210993.984 20483997.823 373254.744 10 0 61148 43200.00000 0 15213325.555 20169785.998 3596198.263 10 0 61148 44100.00000 0 14925418.106 19569246.177 6749367.380 10 0 61148 45000.00000 0 14317288.704 18731662.243 9771606.621 10 0 61148 45900.00000 0 13370710.235 17713059.930 12604322.242 10 0 61148 46800.00000 0 12080206.896 16573745.515 15192612.982 10 0 61148 47700.00000 0 10453523.873 15375685.102 17486327.574 10 0 61148 48600.00000 0 8511551.052 14179834.594 19441029.155 10 0 61148 49500.00000 0 6287703.295 13043532.116 21018848.685 10 0 61148 50400.00000 0 3826782.269 12018061.719 22189211.695 10 0 61148 51300.00000 0 1183366.171 11146489.749 22929425.192 10 0 61148 52200.00000 0 -1580207.046 10461863.774 23225114.115 10 0 61148 53100.00000 0 -4396180.573 9985848.812 23070499.412 10 0 61148 54000.00000 0 -7193948.193 9727857.428 22468512.630 10 0 61148 54900.00000 0 -9902747.277 9684709.890 21430744.661 10 0 61148 55800.00000 0 -12454364.986 9840838.637 19977229.186 10 0 61148 56700.00000 0 -14785746.651 10169028.768 18136064.223 10 0 61148 57600.00000 0 -16841398.951 10631664.011 15942878.086 10 0 61148 58500.00000 0 -18575488.548 11182426.418 13440148.979 10 0 61148 59400.00000 0 -19953549.139 11768378.916 10676390.281 10 0 61148 60300.00000 0 -20953725.748 12332343.469 7705216.313 10 0 61148 61200.00000 0 -21567504.080 12815474.789 4584306.021 10 0 61148 62100.00000 0 -21799894.191 13159920.818 1374284.265 10 0 61148 63000.00000 0 -21669060.504 13311457.101 -1862457.612 10 0 61148 63900.00000 0 -21205413.618 13221982.779 -5062978.655 10 0 61148 64800.00000 0 -20450202.154 12851771.491 -8165018.342 10 0 61148 65700.00000 0 -19453664.204 12171380.536 -11108215.069 10 0 61148 66600.00000 0 -18272816.769 11163136.076 -13835288.418 10 0 61148 67500.00000 0 -16968976.998 9822130.014 -16293161.289 10 0 61148 68400.00000 0 -15605120.459 8156684.960 -18433999.318 10 0 61148 69300.00000 0 -14243188.475 6188266.277 -20216146.702 10 0 61148 70200.00000 0 -12941458.647 3950843.661 -21604939.914 10 0 61148 71100.00000 0 -11752089.633 1489727.969 -22573383.364 10 0 61148 72000.00000 0 -10718943.798 -1140068.766 -23102673.928 10 0 61148 72900.00000 0 -9875779.172 -3875882.258 -23182564.439 10 0 61148 73800.00000 0 -9244886.427 -6649768.770 -22811559.416 10 0 61148 74700.00000 0 -8836227.540 -9391103.233 -21996939.602 10 0 61148 75600.00000 0 -8647111.559 -12029294.808 -20754615.243 10 0 61148 76500.00000 0 -8662420.134 -14496507.150 -19108811.238 10 0 61148 77400.00000 0 -8855372.296 -16730270.502 -17091590.577 10 0 61148 78300.00000 0 -9188795.210 -18675877.322 -14742225.538 10 0 61148 79200.00000 0 -9616846.358 -20288462.257 -12106429.036 10 0 61148 80100.00000 0 -10087113.595 -21534680.476 -9235461.292 10 0 61148 81000.00000 0 -10543003.617 -22393915.247 -6185129.410 10 0 61148 81900.00000 0 -10926317.295 -22858965.424 -3014699.579 10 0 61148 82800.00000 0 -11179902.536 -22936185.297 214256.623 10 0 61148 83700.00000 0 -11250272.138 -22645072.278 3439059.064 10 0 61148 84600.00000 0 -11090075.764 -22017321.058 6597135.531 10 0 61148 85500.00000 0 -10660321.413 -21095385.125 9627233.959 99